STARLINK-5694, 55481

Orbit data source: Space-Track

STARLINK-5694, 55481 is a payload satellite owned by SpaceX/Seattle (US) in LEO that was launched on Thu, 02 Feb 2023 UTC via an FALCON 9 launch vehicle from the Air Force Eastern Test Range (AFETR). Payload-class satellites include a variety of spacecraft equipped with specific instruments for various scientific and technological missions. These include communications satellites like Starlink; space stations such as the ISS; scientific satellites like the Hubble; Earth observation satellites from companies like Planet Labs, Umbra, and HawkEye 360; GPS; miniature CubeSats for education and research; and military/defense satellites.

Loading next visibility...
Identifier
55481, 2023-015AJ
Orbit
LEO
Country
Flag of USUS
Related business
Manufacturer
SpaceX/Seattle
Mission
Operational Commercial Communications
Bus & Motor
STARLINK, Unknown motor
Mass
305 kg wet, ~290 kg dry
Launch date (UTC)
2023-02-02 (3 years ago)
Launch vehicle
FALCON 9
Launch site
Air Force Eastern Test Range (AFETR)
Object type
Payload
Rocket body
Debris
Shape & HBR
Box + 1 Pan, 4.4 m
Radar Cross Section
13.562 m², Large (>1 m²)

Expand to show TLE details & history
Last TLE update: 18 hours ago

TLE from 18 hours ago
0 STARLINK-5694
1 55481U 23015AJ  25261.25604848  .00000106  00000-0  22932-4 0  9996
2 55481  43.0027 196.0974 0000974 261.7077  98.3655 15.02533449144660
Epoch: 2025-09-18T06:08Z
TLE epoch observation values (Epoch: 2025-09-18T06:08:42.588Z)
Latitude
-0.00002°
Longitude
106.49967°
Altitude
558.964 km
Speed
7.584 km/s
True Right ascension
13h 04m 23s
True Declination
0° 00' 00"
Sunlit
Object was in daylight at epoch
Visualization orbit readout
Latitude
Unknown
Longitude
Unknown
Altitude
Unknown
Speed
Unknown
Apparent Right ascension
Unknown
Apparent Declination
Unknown
Sunlit
N/A
Visualization observer readout
Local Sidereal Time
17:18:22
Azimuth
Unknown
Elevation
Unknown
Doppler factor
Unknown
Orbital elements
Apogee altitude
561.687 km
Perigee altitude
560.335 km
Semi-major axis
6,939.148 km
Eccentricity
0.0001
Inclination
43.0027°
RAAN
196.0974°
Arg. of periapsis
261.7077°
True anomaly
98.37654°
Mean anomaly
98.3655°
Eccentric anomaly
98.37102°
Mean motion
3.75478 °/min
Orbital period
95.88 mins
BSTAR
0.000022932
Loading maneuver chart data...
Computing Atmospheric mass density...
Loading historical data...
Loading historical data...
Loading historical data...
Loading historical data...
Loading historical data...
Loading historical data...
Loading historical data...

Documentation

Showing up to 5 results
|